Simultaneous Nadir Overpasses (SNOs) Predictions

Prediction of SNOs between NOAA-19 and TERRA Satellite Orbit:

Table of predicted SNOs for the next 14.0 days since TLE Epoch: 4/6/2018
Index Date (NOAA-19) Time (NOAA-19) Lat,Lon (NOAA-19) SZA (NOAA-19 ) Date (TERRA) Time (TERRA) Lat,Lon (TERRA) SZA (TERRA ) Distance(km) Time Diff (sec)
1 04/08/2018 03:49:35 76.84, 137.90 70.06 04/08/2018 03:50:26 76.84, 137.92 70.08 0.67 51
2 04/08/2018 04:40:28 -76.77, -54.56 110.00 04/08/2018 04:39:54 -76.81, -54.56 109.98 4.07 34
3 04/10/2018 09:23:07 -76.85,-125.45 110.75 04/10/2018 09:24:13 -76.87,-125.41 110.71 3.18 66
4 04/10/2018 10:14:13 76.82, 41.87 69.22 04/10/2018 10:13:40 76.82, 42.02 69.22 3.86 33
5 04/12/2018 14:56:51 76.87, -28.90 68.46 04/12/2018 14:57:59 76.88, -28.83 68.50 2.52 68
6 04/12/2018 15:47:45 -76.83, 138.54 111.58 04/12/2018 15:47:28 -76.81, 138.54 111.61 2.34 17
7 04/14/2018 20:30:34 -77.32, 65.72 112.01 04/14/2018 20:31:40 -77.21, 68.93 111.91 79.81 66
8 04/14/2018 21:21:28 76.82,-124.78 67.63 04/14/2018 21:21:14 76.82,-124.87 67.61 2.13 14
9 04/17/2018 02:55:01 -76.85, -28.24 113.13 04/17/2018 02:55:01 -76.87, -28.14 113.11 2.93 0
10 04/19/2018 08:28:43 76.84, 68.47 66.10 04/19/2018 08:28:48 76.83, 68.30 66.08 4.49 5




NCC Satellite Simultaneous Nadir Overpasses (SNOs) Prediction Service
